Regional Weather Roundup
Issued by NWS Charleston, SC

Current Version | Previous Version | Graphics & Text | Print | Product List | Glossary On
Versions: 1 2 3 4 5 6 7 8 9 10 11 12 13 14 15 16 17 18 19 20 21 22 23 24 25 26 27 28 29 30 31 32 33 34 35 36 37 38 39 40 41 42 43 44 45 46 47 48 49 50
362 ASUS42 KCHS 241413 RWRCHS REGIONAL WEATHER ROUNDUP NATIONAL WEATHER SERVICE CHARLESTON SC 1000 AM EDT SUN JUL 24 2016 NOTE: "FAIR" INDICATES FEW OR NO CLOUDS BELOW 12,000 FEET WITH NO SIGNIFICANT WEATHER AND/OR OBSTRUCTIONS TO VISIBILITY. NOT ALL STATIONS ARE QUALITY CONTROLLED. USE DATA WITH CAUTION... ESPECIALLY DEWPOINT OBSERVATIONS. SCZ027-030-031-034>040-042>050-241500- ...SOUTHEAST SOUTH CAROLINA... CITY SKY/WX TMP DP RH WIND PRES REMARKS N CHARLESTON MOSUNNY 87 74 64 W7 30.03F HX 95 WATERFRONT PRK N/A 85 76 74 W7 30.02R HX 95 MOUNT PLEASANT FAIR 88 75 66 W5 30.04S HX 97 JOHNS ISLAND FAIR 88 77 70 SW8 30.04S HX 100 PINOPOLIS N/A 82 75 78 SW5 29.97S MONCKS CORNER FAIR 82 72 69 SW3 30.04S SUMMERVILLE NOT AVBL BEAUFORT MCAS SUNNY 88 74 63 SW7 30.05R HX 96 BEAUFORT ARPT FAIR 86 75 70 SW7 30.04S HX 95 HILTON HEAD IS SUNNY 90 75 62 S6 30.06R HX 100 WALTERBORO SUNNY 88 73 62 W6 30.05S HX 96 ALLENDALE FAIR 86 73 66 VRB3 30.05R HX 93 ...SOUTHERN MIDLANDS AND PEE DEE... CITY SKY/WX TMP DP RH WIND PRES REMARKS GEORGETOWN FAIR 81 75 83 W5 30.05S KINGSTREE FAIR 84 72 65 CALM 30.03F ORANGEBURG SUNNY 85 73 67 W7 30.05R HX 91 BARNWELL NOT AVBL AIKEN FAIR 84 70 61 SW8 30.09R MANNING FAIR 82 72 69 SW6 30.04S COLUMBIA MOSUNNY 89 69 51 W6 30.03S HX 93 SUMTER SUNNY 86 71 61 W7 30.02R HAZE HX 91 FLORENCE SUNNY 86 75 69 VRB5 30.04R HX 95 MYRTLE BEACH MOSUNNY 86 72 62 SW8 30.06R HX 92 N MYRTLE BEACH MOSUNNY 86 76 71 SW12 30.04S HX 96 $$ GAZ063-065-086>088-099>101-113>116-118-119-134>141-150-241500- ...SOUTHEAST GEORGIA... CITY SKY/WX TMP DP RH WIND PRES REMARKS SAVANNAH ARPT MOSUNNY 86 73 65 SW6 30.05S HX 93 HUNTER AAF SUNNY 86 79 79 SW3 30.03S HX 99 FORT STEWART SUNNY 86 73 65 SW2 30.03S HX 92 STATESBORO SUNNY 85 77 75 CALM 30.06R HX 96 SYLVANIA NOT AVBL CLAXTON FAIR 86 76 72 CALM 30.05S HX 96 ...CSRA...CENTRAL AND FAR SOUTHEAST GEORGIA... CITY SKY/WX TMP DP RH WIND PRES REMARKS THOMSON SUNNY 87 76 70 CALM 30.10R HX 98 AUGUSTA-BUSH SUNNY 86 71 60 SW6 30.03S HX 91 AUGUSTA-DANIEL SUNNY 87 71 58 S5 30.06R HX 93 SWAINSBORO FAIR 84 73 70 CALM 30.07S HX 91 VIDALIA SUNNY 88 72 58 W5 30.06F HX 94 EASTMAN FAIR 86 68 54 CALM 30.09S HAZLEHURST FAIR 88 77 70 CALM 30.06R HX 100 ALMA SUNNY 85 75 72 S5 30.07R HX 93 WAYCROSS SUNNY 88 78 72 SW3 30.07R HX 102 JESUP FAIR 84 79 84 CALM 30.06S HX 96 BAXLEY FAIR 86 79 79 CALM 30.06S HX 99 BRUNSWICK MOSUNNY 84 77 79 W6 30.07S HX 94 SAINT SIMONS MOSUNNY 85 72 65 SW9 30.06S HX 91 $$ SCZ027-028-034-036>038-045-046-048>050-GAZ119-141-241500- ...LAKE AND SUPPLEMENTAL COASTAL OBSERVATIONS... STATION/POSITION TIME TEMP WIND PRES WAVE SWELL AIR SEA DIR/SP/G HT/PER HT/PER/DIR (UTC) (F) (DEG/KT/KT) (MB) (FT/S) (FT/S/D) WINYAH BAY 1245 80 230/ 3 1016.0 LAKE MURRAY 1300 82 270/ 5/ 7 1016.6R ACE BASIN NERRS NOT AVBL FORT PULASKI 1300 84 87 220/ 5/ 8 1018.0R SAPELO ISLAND 1300 83 220/ 6 1018.0R $$ ANZ835-935-AMZ111-154-330-350-352-354-370-450-454-472-241500- ...C-MAN AND BUOY OBSERVATIONS... STATION/POSITION TIME TEMP WIND PRES WAVE SWELL AIR SEA DIR/SP/G HT/PER HT/PER/DIR (UTC) (F) (DEG/KT/KT) (MB) (FT/S) (FT/S/D) BUOY 41004 1350 85 86 240/ 10/ 12 1016.9R 3/ 8 2/130/ 8 BUOY 41008 1350 84 86 190/ 12/ 14 1017.5R 2/ 4 2/ 90/ 8 FOLLY BEACH CMAN 1300 85 260/ 5/ 8 1017.3R CAPERS NEARSHORE 1308 84 83 280/ 10/ 12 1017.2R FRIPP NEARSHORE 1308 85 85 230/ 10/ 14 1016.8R STATION/POSITION TIME TEMP WIND PRES WAVE SWELL AIR SEA DIR/SP/G HT/PER HT/PER/DIR (UTC) (F) (DEG/KT/KT) (MB) (FT/S) (FT/S/D) 5E ST. MARYS GA 1301 86 N/A 2/ 8 FRYING PAN BUOY 1300 83 85 220/ 8/ 12 1017.0R BUOY 41025 1350 84 86 260/ 10/ 12 1017.0R 3/ 9 2/130/ 9 CAPE LOOKOUT NC 1300 85 240/ 5/ 7 1016.8R BUOY 41002 1350 83 85 100/ 2/ 4 1018.5R 2/ 9 2/100/ 9 BUOY 41010 1320 86 86 70/ 2/ 2 1018.5R ST AUGUSTINE FL 1400 84 85 250/ 4/ 6 1019.1R $$

USA.gov is the U.S. government's official web portal to all federal, state and local government web resources and services.